Theta_e
288 289 289 289 290 290 290 290 290 290 292 292 293 293 292 291 290 291 292 292 292 293 293 294 296 300 301 302 301 303 303 304 299 300 301 300 300 301 301 302 304 305 299 297 298 294 302 304 305 304 303 305 306 303
288 288 289 289 289 290 289 289 290 290 291 292 292 292 293 291 291 290 291 291 291 292 292 293 294 295 296 301 302 304 303 303 304 300 297 300 303 299 301 301 302 304 301 302 302 302 303 304 304 305 306 306 305 304
288 288 288 289 289 290 290 290 290 290 291 292 292 293 292 292 292 290 291 291 291 292 292 292 292 295 295 299 302 302 304 305 305 305 302 300 304 302 303 302 302 303 303 302 302 302 304 305 306 306 306 306 305 304
287 288 288 288 289 289 290 290 290 290 291 292 292 293 292 292 291 291 290 290 291 291 292 293 295 294 294 295 300 302 302 304 305 306 304 298 302 304 301 302 301 302 303 302 301 303 305 304 306 306 305 304 304 303
287 287 287 288 288 288 289 290 290 290 291 292 292 293 293 293 291 292 291 290 290 291 292 292 291 295 297 297 299 301 302 302 304 304 300 300 304 302 300 300 300 302 301 303 302 305 305 305 306 306 305 305 304 303
288 289 289 289 289 289 289 290 291 291 292 292 293 293 293 293 292 292 292 291 290 291 291 287 293 295 296 299 301 303 302 303 304 305 302 305 306 306 300 301 303 306 305 305 304 305 306 306 306 306 305 305 304 304
289 290 290 290 290 290 290 291 291 292 292 292 293 293 293 293 292 292 290 289 290 290 291 290 291 293 296 300 301 302 303 303 304 304 304 303 305 305 296 303 304 306 306 306 306 306 305 306 306 305 305 305 304 303
290 290 290 291 290 290 291 291 292 292 292 292 293 293 292 292 293 291 290 291 290 290 290 292 290 297 299 301 301 302 303 303 304 303 303 302 303 302 301 303 305 305 305 305 305 305 306 306 306 306 305 305 303 302
291 291 291 291 291 291 291 291 292 292 293 293 293 292 292 294 292 291 291 292 291 291 291 292 290 292 301 301 301 302 303 303 301 302 302 303 300 304 301 303 304 305 305 304 304 305 305 305 305 305 305 304 303 302
293 293 292 291 292 291 291 291 292 292 293 294 293 293 291 291 291 290 289 290 290 291 291 288 293 293 299 301 300 301 301 301 302 301 302 302 302 304 303 304 304 304 304 304 304 304 303 305 304 304 304 303 303 303
292 292 292 293 291 292 292 292 292 293 293 293 291 289 290 290 290 289 290 290 291 291 291 291 292 292 296 299 300 300 298 299 302 301 302 300 300 300 304 304 303 304 303 304 303 303 304 303 303 303 303 303 303 302
293 293 293 293 292 291 292 292 293 293 293 291 290 290 290 290 290 291 287 290 288 291 292 290 291 292 295 296 298 299 301 300 301 298 297 299 297 301 301 302 302 303 303 303 303 303 303 303 303 303 303 302 302 302
293 293 293 293 292 292 293 293 294 293 291 290 290 291 291 289 288 287 287 287 288 290 293 293 295 294 296 298 299 299 301 301 298 293 298 297 299 300 300 301 301 301 302 302 303 303 302 302 302 303 302 302 302 302
293 293 294 293 292 293 293 294 292 290 290 290 289 289 288 289 288 288 289 290 291 293 294 294 295 298 298 298 299 299 298 299 300 296 299 295 300 300 301 301 301 301 301 302 302 303 303 302 302 302 302 302 302 302
292 292 292 292 292 294 294 292 291 290 289 289 290 288 288 288 290 291 291 290 290 291 292 295 296 298 298 299 299 299 300 301 300 298 294 299 300 300 300 300 300 300 301 301 301 302 303 302 302 302 301 301 301 302
293 292 293 293 294 294 293 290 289 289 290 290 290 288 291 290 287 292 292 290 290 290 291 294 298 299 300 300 299 297 300 300 298 295 299 300 300 300 300 300 301 301 301 301 301 301 302 301 301 301 301 301 301 300
292 292 292 291 291 290 290 289 289 289 289 291 288 291 292 291 290 293 292 292 293 292 293 295 299 300 300 300 300 297 299 296 298 299 299 300 300 300 300 300 300 302 302 302 302 302 302 301 301 301 301 299 299 298
292 292 291 290 289 289 289 288 290 290 290 291 289 291 292 292 292 291 292 293 293 294 295 296 298 300 300 300 298 294 297 300 300 301 300 300 299 300 301 301 302 301 302 302 302 301 301 301 301 301 300 298 297 296
292 291 290 289 289 288 289 288 289 291 291 292 291 291 291 292 292 292 291 291 292 294 295 294 298 299 298 296 295 298 302 302 303 303 303 303 302 302 302 302 301 301 301 301 300 300 300 301 301 300 298 297 297 294
291 290 290 289 290 291 291 291 291 291 290 293 293 293 292 291 292 292 292 292 296 295 296 300 299 299 297 301 299 299 301 303 303 302 301 302 302 302 302 301 300 299 298 297 299 300 299 298 297 296 296 294 294 292
290 290 289 289 290 291 292 292 291 291 291 291 291 294 294 294 295 298 297 298 297 298 298 299 299 299 301 301 301 300 301 302 302 302 301 299 299 301 299 297 297 297 297 297 298 296 296 295 293 291 291 290 291 290
291 291 291 291 292 292 292 291 294 294 293 296 296 295 295 295 295 294 295 295 295 296 297 299 299 299 300 300 300 301 300 301 300 300 299 299 298 299 297 296 296 295 295 295 295 294 293 291 291 291 291 291 290 288
292 292 291 291 291 294 294 294 295 295 294 295 295 294 294 294 295 295 294 294 295 296 297 297 298 298 299 299 299 299 300 300 298 297 295 296 297 297 297 296 295 295 294 292 292 292 291 290 290 289 288 286 285 285
291 291 292 293 293 292 294 294 295 294 293 294 293 293 293 293 295 291 293 294 294 295 296 295 296 296 296 296 296 296 297 297 295 294 295 295 294 293 294 293 293 292 292 291 291 290 289 287 286 285 285 285 285 284
291 291 291 292 294 290 289 289 289 291 289 292 290 290 290 294 290 291 293 294 294 295 295 295 295 295 294 295 295 294 294 295 293 291 291 294 292 291 291 290 290 290 290 290 288 287 286 286 286 285 284 284 283 283
291 291 291 290 290 289 291 287 286 288 287 285 289 293 294 286 284 288 288 289 293 294 294 295 295 294 293 293 293 292 291 292 293 291 288 289 290 291 289 288 288 288 288 289 289 287 286 284 284 283 283 282 282 282
288 286 292 293 293 294 289 291 292 286 282 284 285 284 284 284 284 286 288 290 291 293 293 292 292 292 290 290 290 290 290 290 291 290 289 290 290 290 290 289 288 287 286 286 284 283 283 283 282 282 281 281 281 281
290 292 287 289 289 288 280 280 280 282 284 290 286 281 280 283 283 287 287 289 291 292 292 291 291 291 290 289 289 290 291 290 290 290 289 288 287 287 286 286 284 283 283 282 282 282 281 281 281 281 281 281 280 280
291 290 289 282 284 284 283 283 284 288 288 289 278 277 281 286 286 287 287 288 290 292 291 290 289 290 290 290 290 289 289 289 288 287 286 285 285 283 282 282 281 281 281 281 281 281 280 280 280 280 280 279 279 279
290 288 284 279 277 279 287 287 287 285 286 285 284 284 284 285 286 287 287 288 289 290 289 289 289 289 289 289 288 288 288 287 287 286 285 284 282 281 280 280 280 280 280 279 279 279 279 279 279 279 279 279 279 279
288 287 285 284 281 286 284 285 284 284 284 284 284 284 284 285 286 286 287 287 288 288 289 288 288 288 288 287 287 286 284 283 283 283 282 281 281 280 280 279 279 279 279 279 279 279 279 279 279 279 279 279 280 280
288 286 281 280 285 286 285 285 284 284 284 284 284 284 284 284 283 284 285 286 286 287 287 287 287 285 285 285 285 285 284 282 281 281 281 280 279 279 279 278 278 278 278 278 278 279 279 279 279 279 280 280 280 280
286 286 287 287 285 285 287 286 285 285 285 285 285 284 282 282 281 283 284 285 286 286 286 285 285 285 285 284 283 282 280 280 280 280 279 279 279 278 278 278 278 278 278 278 278 279 279 279 279 280 280 280 281 281
Wind_Speed
26 26 25 25 25 26 26 26 26 25 25 25 26 28 26 25 21 21 23 21 14 9 21 19 16 14 6 11 4 4 4 6 3 5 5 4 3 6 4 5 8 8 6 4 3 2 8 14 2 10 6 6 13 30
29 28 28 28 28 28 27 26 26 26 26 25 27 29 29 29 24 22 24 23 20 21 10 16 24 31 26 18 6 10 3 4 12 4 1 3 2 3 6 4 4 3 7 5 8 7 7 4 6 7 12 11 13 29
32 32 31 31 31 30 29 28 28 26 26 26 26 25 28 30 28 25 26 20 19 18 20 29 29 31 28 29 21 6 9 6 8 12 8 3 4 4 4 5 4 4 7 4 3 7 15 17 10 15 16 15 20 33
37 37 36 35 34 33 32 30 29 27 27 26 25 26 28 29 30 27 29 27 23 8 4 8 8 21 30 28 29 27 25 23 13 16 5 3 3 9 5 4 6 7 13 7 4 9 6 21 13 24 23 25 25 24
42 42 42 41 40 38 35 33 31 29 28 28 27 26 29 30 30 28 28 28 24 20 4 8 20 22 20 23 28 28 29 26 22 5 3 3 7 4 1 2 4 9 7 8 6 12 9 9 18 27 28 26 25 25
44 42 42 42 41 40 38 35 32 30 28 28 27 26 30 30 30 32 20 29 30 26 6 2 7 17 18 22 27 29 30 23 24 5 5 7 9 11 3 4 6 21 24 26 12 19 26 12 19 31 28 29 29 28
46 45 45 44 44 42 41 37 33 29 29 28 27 26 30 30 38 39 11 13 28 27 6 3 6 11 14 25 24 28 27 19 19 8 4 6 10 15 3 6 6 17 15 19 28 18 21 27 17 27 30 29 30 29
49 48 46 46 46 45 43 39 34 30 29 28 29 27 30 31 41 39 16 10 19 24 10 3 4 6 16 14 16 29 24 27 12 9 5 4 6 4 6 11 18 16 9 7 14 25 21 19 23 24 26 26 34 33
45 45 46 46 47 45 43 41 36 31 30 31 29 26 25 31 25 38 24 8 17 12 8 7 3 5 16 16 17 13 21 4 7 4 4 9 3 7 6 16 25 30 27 13 6 18 21 22 21 20 26 29 37 36
36 37 37 37 42 45 43 40 39 33 28 26 34 20 8 20 26 25 17 13 9 14 10 3 13 6 7 19 11 10 9 4 4 4 9 4 4 21 13 19 23 24 25 29 28 16 15 24 26 26 26 25 26 36
45 44 43 40 36 35 40 41 39 36 25 30 12 6 23 29 22 13 7 9 10 4 9 7 13 4 10 2 4 13 3 4 5 4 5 4 4 8 22 20 18 19 21 23 27 31 24 18 24 25 26 26 25 24
28 32 33 38 41 35 32 41 39 37 35 29 21 33 30 10 6 4 4 4 4 6 6 8 18 19 10 13 3 5 3 3 6 11 5 4 4 18 28 30 27 26 27 29 29 30 28 24 22 23 27 28 26 28
21 13 25 40 42 37 36 43 44 47 40 37 19 8 9 8 5 8 8 4 4 7 16 13 7 17 16 12 6 4 5 3 11 2 4 4 14 22 27 28 32 36 40 39 34 31 25 26 27 28 29 31 30 34
10 8 27 37 34 35 44 55 55 54 41 9 8 7 5 5 6 5 10 11 11 17 21 23 12 4 11 5 4 5 4 5 4 4 6 3 18 22 26 31 34 40 45 47 44 41 34 27 25 31 33 34 36 35
16 23 26 28 31 45 59 61 54 47 12 6 6 6 6 5 6 10 15 21 22 29 15 13 11 8 3 3 2 4 4 5 6 8 3 17 20 20 26 32 39 39 32 35 35 39 39 31 30 33 32 35 37 35
30 30 39 45 53 56 52 52 45 26 4 4 3 3 3 5 2 8 9 18 27 25 22 15 4 5 4 4 5 5 9 6 6 4 19 21 27 28 30 34 41 35 30 32 32 34 37 36 35 33 34 36 36 34
22 31 46 48 48 42 41 39 23 4 1 1 2 11 7 5 7 9 18 17 12 20 9 3 6 5 3 3 4 6 6 4 5 11 15 22 29 31 32 35 27 20 25 27 29 35 36 36 35 35 40 39 35 30
33 39 41 38 36 32 25 15 3 1 2 5 3 8 10 12 13 13 18 15 6 16 15 6 10 4 3 4 3 4 4 10 8 7 20 22 29 25 20 20 21 21 22 27 32 37 37 37 39 40 40 37 32 27
32 36 35 35 31 17 5 6 3 2 9 8 15 18 13 15 22 25 21 23 25 19 12 9 6 5 4 3 3 8 18 16 19 16 13 12 17 17 15 14 15 19 28 35 36 36 36 37 37 40 38 35 30 25
26 26 27 25 13 3 3 4 6 5 2 5 12 13 13 16 16 24 30 30 29 19 11 3 2 2 2 3 9 17 22 25 24 23 18 16 16 16 17 18 21 25 31 34 36 37 37 36 36 35 31 27 24 22
24 22 24 18 6 5 3 4 6 7 6 10 19 15 8 14 14 9 11 26 6 3 3 6 9 12 12 12 11 14 27 27 26 21 28 22 18 21 22 24 28 31 33 33 35 34 34 33 31 27 25 21 18 15
22 20 12 14 3 5 6 8 8 6 8 7 8 6 5 3 5 11 11 9 4 7 6 14 14 17 18 18 15 15 21 21 18 26 27 28 29 28 28 28 30 31 32 33 33 33 31 29 26 23 20 19 15 13
11 4 3 3 4 7 6 8 3 5 2 4 5 4 4 4 10 9 4 7 7 14 14 14 14 14 18 16 16 18 18 23 29 30 28 30 28 28 29 27 28 32 31 29 28 29 27 23 20 19 17 14 12 10
12 2 3 4 6 3 7 6 7 6 7 4 4 4 4 4 9 5 4 5 10 11 14 16 17 19 18 17 19 20 22 26 30 29 30 32 33 30 27 28 28 29 29 28 23 22 21 19 17 15 13 11 9 7
3 4 4 4 4 2 3 3 4 5 4 5 4 4 3 5 3 3 2 5 8 9 11 13 15 18 21 23 23 24 27 32 34 31 28 33 35 34 33 31 29 26 21 20 19 18 16 12 9 8 7 6 6 7
1 3 3 2 4 2 1 3 3 2 3 4 3 2 4 3 5 3 2 12 3 7 10 14 18 21 22 25 28 28 28 33 34 35 29 32 35 35 34 33 29 22 15 12 13 12 12 11 9 6 6 7 8 10
1 3 2 3 3 4 4 6 6 4 3 2 1 3 3 4 2 1 7 9 10 16 20 23 27 30 31 32 31 32 33 32 33 35 29 24 22 21 21 22 21 19 15 13 12 9 7 6 6 6 7 8 10 12
0 3 2 7 7 9 3 3 3 2 2 5 4 5 3 1 1 4 5 14 20 23 25 27 28 30 31 30 29 29 29 30 31 31 30 26 21 18 16 16 18 15 12 9 7 5 5 5 6 8 9 11 12 15
2 3 6 5 6 7 5 2 1 3 4 3 4 2 2 3 3 6 11 18 22 24 27 27 27 27 28 29 29 29 28 25 27 29 29 28 24 19 15 12 10 8 6 4 3 4 5 7 9 10 12 13 15 16
3 5 6 4 4 1 3 3 4 4 5 9 8 14 15 14 13 10 11 17 22 25 26 27 27 27 30 30 28 26 22 21 19 21 25 23 19 17 12 9 6 4 2 1 2 4 6 8 9 11 13 15 17 19
7 6 5 4 2 9 19 17 15 13 11 14 23 21 15 16 18 12 12 14 19 23 25 26 27 28 27 27 26 26 24 19 17 16 17 18 16 12 8 5 3 2 1 3 5 6 8 10 12 14 16 17 19 22
5 5 5 3 4 13 9 7 8 11 10 11 9 15 14 8 6 4 11 12 16 20 22 24 27 27 24 22 21 20 20 21 19 17 14 12 10 7 5 3 2 3 5 7 9 10 12 14 16 18 20 21 23 24
11 17 15 7 4 3 5 7 5 5 5 3 3 5 6 4 3 3 10 12 14 19 23 26 27 26 22 19 19 21 21 19 17 14 11 8 6 5 4 4 5 6 8 10 12 14 16 17 19 20 21 22 23 23
Wind_Direction
289 286 284 283 280 277 274 269 266 265 265 257 250 244 244 236 234 227 237 236 229 242 259 266 257 269 247 214 177 228 192 215 100 168 148 198 134 197 144 184 170 163 151 173 124 117 267 216 187 170 198 178 176 172
288 285 282 281 279 277 273 270 266 267 264 258 251 250 242 231 226 220 231 240 241 253 255 271 256 251 252 239 304 236 272 186 191 113 215 122 140 120 151 204 170 195 186 180 183 208 241 208 245 187 156 176 179 179
286 284 282 279 278 277 273 268 265 265 261 257 253 247 234 223 222 216 225 226 230 242 277 272 269 248 255 239 225 282 248 258 209 199 161 165 178 136 171 212 143 227 164 193 113 236 241 243 268 189 166 161 169 167
281 280 278 277 276 274 271 267 265 264 258 252 250 241 232 221 217 212 215 225 220 237 280 268 294 244 247 250 240 237 243 254 285 191 164 148 152 189 194 186 172 187 163 167 265 285 285 240 227 175 163 158 156 159
279 278 278 276 275 272 269 264 262 261 254 248 245 240 226 219 213 209 216 227 230 216 296 289 296 253 249 239 225 228 230 240 255 244 128 190 163 129 243 102 209 185 167 184 217 213 211 238 214 183 175 177 181 176
279 275 271 269 267 265 262 260 258 254 247 243 240 233 220 211 200 200 209 225 228 223 235 289 285 261 226 214 209 212 218 217 225 253 209 182 187 187 173 225 235 218 215 215 212 228 219 221 198 193 194 191 192 194
278 272 266 263 261 259 256 253 251 249 241 239 232 228 215 206 199 189 192 214 210 202 203 254 262 248 223 205 206 213 215 211 220 194 260 187 185 193 143 213 212 208 209 219 232 220 213 216 204 203 206 201 198 197
279 274 267 260 254 251 248 246 244 241 237 231 228 213 207 210 196 195 196 187 179 176 193 244 265 258 184 184 194 208 203 201 209 177 174 201 177 183 237 192 207 205 212 228 232 220 224 215 216 210 204 207 192 191
276 270 263 255 250 244 240 236 235 235 228 219 227 192 195 190 186 191 171 149 183 180 190 197 204 244 174 184 184 191 197 180 198 183 186 160 189 217 200 181 205 220 229 237 225 227 224 207 201 209 210 205 200 197
277 270 262 255 242 236 230 226 224 224 217 213 166 172 177 160 168 166 172 195 223 214 216 205 217 255 178 188 169 160 172 164 194 204 147 198 227 226 183 197 204 207 216 234 247 247 216 206 201 196 199 197 199 207
283 269 258 243 234 224 217 214 209 207 206 161 147 120 132 134 126 171 173 192 197 201 181 217 220 223 234 265 167 182 175 164 181 197 190 213 232 188 197 201 201 206 212 229 239 242 237 230 210 206 209 210 211 210
284 267 243 225 213 207 202 194 191 192 168 162 130 128 126 138 165 190 191 178 179 197 193 192 210 201 218 205 258 162 154 176 195 148 157 242 174 197 207 215 224 227 232 234 233 236 235 234 230 226 213 208 207 207
305 275 220 198 192 193 190 185 179 161 142 140 123 143 140 178 161 178 183 220 191 187 171 191 183 177 194 189 220 182 148 169 117 82 219 247 179 214 220 223 228 229 231 232 226 225 230 235 228 226 215 207 200 190
359 164 157 164 173 178 177 167 155 147 133 134 152 144 181 177 203 187 198 203 196 185 187 181 181 182 198 190 211 129 144 126 166 162 235 212 186 208 211 214 224 231 229 229 230 230 229 229 230 224 212 203 195 191
95 115 137 157 160 162 160 156 153 153 136 123 140 190 180 203 198 211 219 211 210 209 218 179 185 242 154 224 234 121 138 163 204 222 203 183 182 196 207 216 226 231 229 231 228 225 222 227 215 197 196 195 194 190
102 116 123 136 145 147 151 146 148 147 85 128 154 82 156 151 237 220 184 199 215 222 220 213 198 204 196 191 176 170 157 184 228 188 197 192 199 211 221 229 234 235 237 234 228 215 209 202 194 189 186 186 185 187
108 125 129 124 124 125 136 143 146 58 322 186 231 204 181 150 175 189 223 213 206 194 205 170 226 181 101 215 155 158 198 203 137 183 202 210 216 224 233 236 247 238 223 217 209 201 199 190 187 183 176 175 177 178
126 135 128 124 128 127 127 130 79 208 271 243 190 226 222 221 225 219 219 218 244 221 213 216 240 160 238 159 174 218 172 167 190 214 213 224 227 237 237 213 205 208 205 199 195 189 182 179 177 175 173 170 170 172
138 145 145 144 145 127 122 186 244 255 234 228 240 240 225 226 235 242 244 255 253 246 195 210 220 163 201 223 147 176 158 158 146 143 155 172 180 179 180 193 201 200 191 182 177 172 172 176 177 172 172 171 173 172
142 153 158 150 142 78 124 182 205 245 261 265 254 248 249 246 245 259 253 242 221 177 208 245 73 101 217 127 183 190 169 163 155 137 131 146 157 165 168 177 175 172 166 161 161 165 165 166 167 166 166 168 173 173
149 161 169 177 233 300 255 232 221 226 241 232 245 226 205 227 224 179 125 149 120 133 104 95 104 114 113 120 126 162 172 174 178 179 157 143 150 156 154 154 157 155 154 153 154 155 159 157 156 159 160 160 162 162
163 166 182 198 269 277 260 244 235 216 204 278 351 71 56 27 33 21 67 61 52 40 88 123 117 117 109 104 119 153 169 172 161 150 150 150 145 147 149 153 155 150 149 151 153 152 150 150 152 155 158 159 165 170
166 108 60 352 271 244 280 312 320 1 60 359 29 32 12 31 24 20 74 42 65 85 105 111 105 98 104 112 130 136 148 149 146 147 148 144 142 146 147 152 155 152 147 146 147 144 141 144 152 157 160 164 171 178
201 269 266 237 230 281 319 344 359 13 23 18 29 51 30 2 16 54 55 28 69 100 110 118 122 118 123 128 132 139 147 153 140 141 147 143 136 136 141 141 146 146 146 144 146 145 147 149 150 152 157 169 183 200
180 231 255 265 256 353 19 16 12 32 31 24 46 8 344 13 69 55 46 21 79 95 117 135 139 141 132 135 138 138 146 154 142 130 136 144 139 136 134 135 134 133 140 142 140 138 133 135 148 166 180 199 222 241
213 227 211 279 303 77 341 36 40 61 70 40 19 6 34 59 55 42 6 343 46 164 157 161 156 144 131 140 137 137 135 146 151 134 126 133 141 143 137 133 129 123 127 138 146 151 162 170 179 197 225 244 259 268
183 291 298 323 299 69 41 55 58 74 71 99 280 24 60 67 68 289 357 33 127 151 153 150 149 147 137 135 138 138 142 144 144 135 137 138 136 137 140 141 139 138 144 161 162 164 174 192 216 237 253 265 272 277
159 32 87 345 55 32 103 42 57 38 357 1 60 41 102 84 223 14 42 132 144 152 149 144 142 140 136 132 132 130 128 128 126 128 123 115 115 122 132 138 138 141 150 159 173 193 216 235 249 262 269 272 275 278
77 100 89 35 46 36 37 66 56 39 3 22 104 110 118 72 65 110 141 143 146 147 137 132 130 132 129 131 130 127 125 126 128 132 130 128 134 130 134 138 138 142 149 168 204 240 255 264 270 274 279 283 285 286
130 112 91 58 74 353 350 49 88 63 105 110 104 114 99 95 107 124 145 152 147 144 143 142 140 139 133 131 128 130 137 147 152 146 142 140 139 135 134 137 141 150 175 238 272 286 292 294 295 295 296 296 295 294
119 103 87 84 97 93 104 101 102 104 95 110 125 113 110 109 108 114 133 156 159 155 152 149 147 145 143 142 145 145 138 139 144 141 137 135 133 133 132 126 116 85 2 327 317 314 313 312 309 308 305 303 302 301
114 135 128 110 126 129 88 58 72 87 93 102 100 113 109 81 67 77 148 161 165 160 158 156 149 142 144 146 149 148 145 138 138 134 130 125 123 120 111 90 52 9 350 340 332 325 322 321 320 319 317 314 311 309
108 114 108 96 115 142 140 114 104 107 89 88 71 78 81 84 100 115 154 182 185 173 164 158 153 152 153 157 154 148 143 141 137 132 128 123 115 103 83 48 17 359 348 343 339 336 332 330 327 324 320 315 313 311